Time,TemperatureF,DewpointF,PressureIn,WindDirection,WindDirectionDegrees,WindSpeedMPH,WindSpeedGustMPH,Humidity,HourlyPrecipIn,Conditions,Clouds,dailyrainin,SolarRadiationWatts/m^2,SoftwareType,DateUTC
2013-05-31 00:02:00,48.0,45.0,29.98,NNW,339,10.0,14.0,90,-99.99,,,-99.99,0.000000,,2013-05-31 07:02:00,
2013-05-31 00:11:00,48.0,45.0,29.98,NNW,347,10.0,15.0,89,-99.99,,,-99.99,0.000000,,2013-05-31 07:11:00,
2013-05-31 00:21:00,48.0,45.0,29.98,NNW,333,10.0,13.0,90,-99.99,,,-99.99,0.000000,,2013-05-31 07:21:00,
2013-05-31 00:32:00,48.0,45.0,29.98,NW,320,12.0,15.0,90,-99.99,,,-99.99,0.000000,,2013-05-31 07:32:00,
2013-05-31 00:41:00,48.0,45.0,29.98,NW,320,12.0,15.0,90,-99.99,,,-99.99,0.000000,,2013-05-31 07:41:00,
2013-05-31 00:52:00,48.0,45.0,29.98,NNW,337,9.0,13.0,89,-99.99,,,-99.99,0.000000,,2013-05-31 07:52:00,
2013-05-31 01:01:00,48.0,45.0,29.98,NNW,337,9.0,13.0,89,-99.99,,,-99.99,0.000000,,2013-05-31 08:01:00,
2013-05-31 01:11:00,48.0,45.0,29.98,NNW,332,8.0,11.0,89,-99.99,,,-99.99,0.000000,,2013-05-31 08:11:00,
2013-05-31 01:21:00,48.0,45.0,29.98,NNW,331,9.0,13.0,90,-99.99,,,-99.99,0.000000,,2013-05-31 08:21:00,
2013-05-31 01:31:00,47.0,44.0,29.98,NNW,345,8.0,11.0,90,-99.99,,,-99.99,0.000000,,2013-05-31 08:31:00,
2013-05-31 01:42:00,47.0,44.0,29.98,NNW,345,8.0,11.0,90,-99.99,,,-99.99,0.000000,,2013-05-31 08:42:00,
2013-05-31 01:51:00,48.0,45.0,29.98,NNW,329,10.0,15.0,90,-99.99,,,-99.99,0.000000,,2013-05-31 08:51:00,
2013-05-31 02:01:00,48.0,45.0,29.98,NNW,329,10.0,15.0,90,-99.99,,,-99.99,0.000000,,2013-05-31 09:01:00,
2013-05-31 02:11:00,48.0,45.0,29.98,NW,320,13.0,17.0,89,-99.99,,,-99.99,0.000000,,2013-05-31 09:11:00,
2013-05-31 02:21:00,48.0,45.0,29.98,NW,324,11.0,14.0,89,-99.99,,,-99.99,0.000000,,2013-05-31 09:21:00,
2013-05-31 02:32:00,48.0,45.0,29.98,NNW,329,10.0,13.0,89,-99.99,,,-99.99,0.000000,,2013-05-31 09:32:00,
2013-05-31 02:43:00,48.0,45.0,29.98,NNW,329,10.0,13.0,89,-99.99,,,-99.99,0.000000,,2013-05-31 09:43:00,
2013-05-31 02:53:00,48.0,45.0,29.98,NW,323,10.0,14.0,89,-99.99,,,-99.99,0.000000,,2013-05-31 09:53:00,
2013-05-31 03:02:00,48.0,45.0,29.98,NW,323,10.0,14.0,89,-99.99,,,-99.99,0.000000,,2013-05-31 10:02:00,
2013-05-31 03:12:00,48.0,45.0,29.98,NNW,328,9.0,14.0,90,-99.99,,,-99.99,0.000000,,2013-05-31 10:12:00,
2013-05-31 03:22:00,47.0,44.0,29.98,NNW,337,8.0,11.0,90,-99.99,,,-99.99,0.000000,,2013-05-31 10:22:00,
2013-05-31 03:32:00,47.0,45.0,29.98,NNW,341,10.0,13.0,91,-99.99,,,-99.99,0.000000,,2013-05-31 10:32:00,
2013-05-31 03:42:00,47.0,45.0,29.98,NNW,341,10.0,13.0,91,-99.99,,,-99.99,0.000000,,2013-05-31 10:42:00,
2013-05-31 03:52:00,47.0,45.0,29.97,NNW,340,10.0,12.0,91,-99.99,,,-99.99,0.000000,,2013-05-31 10:52:00,
2013-05-31 04:01:00,47.0,45.0,29.97,NNW,340,10.0,12.0,91,-99.99,,,-99.99,0.000000,,2013-05-31 11:01:00,
2013-05-31 04:11:00,47.0,45.0,29.97,NNW,340,9.0,13.0,91,-99.99,,,-99.99,0.000000,,2013-05-31 11:11:00,
2013-05-31 04:22:00,47.0,44.0,29.97,NNW,335,10.0,16.0,90,-99.99,,,-99.99,0.000000,,2013-05-31 11:22:00,
2013-05-31 04:32:00,47.0,44.0,29.96,NNW,332,11.0,14.0,90,-99.99,,,-99.99,0.000000,,2013-05-31 11:32:00,
2013-05-31 04:40:00,47.0,45.0,29.95,NNW,333,12.0,16.0,92,-99.99,,,-99.99,0.000000,,2013-05-31 11:40:00,
2013-05-31 04:42:00,47.0,44.0,29.96,NNW,332,11.0,14.0,90,-99.99,,,-99.99,0.000000,,2013-05-31 11:42:00,
2013-05-31 04:52:00,47.0,45.0,29.96,NW,324,10.0,13.0,91,-99.99,,,-99.99,0.000000,,2013-05-31 11:52:00,
2013-05-31 05:01:00,47.0,45.0,29.96,NW,324,10.0,13.0,91,-99.99,,,-99.99,0.000000,,2013-05-31 12:01:00,
2013-05-31 05:11:00,47.0,45.0,29.96,NNW,328,10.0,13.0,91,-99.99,,,-99.99,0.000000,,2013-05-31 12:11:00,
2013-05-31 05:21:00,47.0,45.0,29.95,NNW,333,12.0,16.0,92,-99.99,,,-99.99,0.000000,,2013-05-31 12:21:00,
2013-05-31 05:31:00,47.0,45.0,29.95,NNW,333,12.0,16.0,92,-99.99,,,-99.99,0.000000,,2013-05-31 12:31:00,
2013-05-31 05:52:00,47.0,45.0,29.96,NNW,331,9.0,11.0,92,-99.99,,,-99.99,0.000000,,2013-05-31 12:52:00,
2013-05-31 06:01:00,47.0,45.0,29.96,NNW,331,9.0,11.0,92,-99.99,,,-99.99,0.000000,,2013-05-31 13:01:00,
2013-05-31 06:11:00,46.0,44.0,29.97,NNW,332,8.0,10.0,92,-99.99,,,-99.99,0.000000,,2013-05-31 13:11:00,
2013-05-31 06:21:00,46.0,44.0,29.97,NNW,332,8.0,12.0,92,-99.99,,,-99.99,0.000000,,2013-05-31 13:21:00,
2013-05-31 06:32:00,47.0,45.0,29.98,NNW,331,9.0,11.0,92,-99.99,,,-99.99,6.000000,,2013-05-31 13:32:00,
2013-05-31 06:42:00,47.0,45.0,29.98,NNW,331,9.0,11.0,92,-99.99,,,-99.99,6.000000,,2013-05-31 13:42:00,
2013-05-31 06:52:00,47.0,45.0,29.98,NNW,335,6.0,9.0,92,-99.99,,,-99.99,24.000000,,2013-05-31 13:52:00,
2013-05-31 07:02:00,47.0,45.0,29.98,NNW,335,6.0,9.0,92,-99.99,,,-99.99,24.000000,,2013-05-31 14:02:00,
2013-05-31 07:11:00,47.0,45.0,29.98,NW,324,5.0,7.0,92,-99.99,,,-99.99,52.000000,,2013-05-31 14:11:00,
2013-05-31 07:21:00,47.0,45.0,29.99,NW,322,5.0,7.0,92,-99.99,,,-99.99,82.000000,,2013-05-31 14:21:00,
2013-05-31 07:31:00,49.0,47.0,29.99,NW,316,6.0,8.0,91,-99.99,,,-99.99,134.000000,,2013-05-31 14:31:00,
2013-05-31 07:41:00,49.0,47.0,29.99,NW,316,6.0,8.0,91,-99.99,,,-99.99,134.000000,,2013-05-31 14:41:00,
2013-05-31 07:52:00,50.0,47.0,29.99,NW,322,6.0,8.0,89,-99.99,,,-99.99,189.000000,,2013-05-31 14:52:00,
2013-05-31 08:01:00,50.0,47.0,29.99,NW,322,6.0,8.0,89,-99.99,,,-99.99,189.000000,,2013-05-31 15:01:00,
2013-05-31 08:11:00,50.0,46.0,30.00,NW,322,6.0,9.0,87,-99.99,,,-99.99,219.000000,,2013-05-31 15:11:00,
2013-05-31 08:21:00,50.0,46.0,30.00,NW,321,7.0,8.0,86,-99.99,,,-99.99,249.000000,,2013-05-31 15:21:00,
2013-05-31 08:33:00,51.0,46.0,30.00,NW,312,9.0,13.0,84,-99.99,,,-99.99,310.000000,,2013-05-31 15:33:00,
2013-05-31 08:43:00,51.0,46.0,30.00,NW,312,9.0,13.0,84,-99.99,,,-99.99,310.000000,,2013-05-31 15:43:00,
2013-05-31 08:53:00,51.0,46.0,30.00,NW,314,10.0,14.0,83,-99.99,,,-99.99,370.000000,,2013-05-31 15:53:00,
2013-05-31 09:03:00,51.0,46.0,30.00,NW,314,10.0,14.0,83,-99.99,,,-99.99,370.000000,,2013-05-31 16:03:00,
2013-05-31 09:12:00,51.0,46.0,30.00,NW,306,11.0,15.0,82,-99.99,,,-99.99,430.000000,,2013-05-31 16:12:00,
2013-05-31 09:22:00,51.0,46.0,30.00,NW,306,11.0,15.0,82,-99.99,,,-99.99,430.000000,,2013-05-31 16:22:00,
2013-05-31 09:33:00,52.0,47.0,30.00,WNW,303,12.0,16.0,82,-99.99,,,-99.99,488.000000,,2013-05-31 16:33:00,
2013-05-31 09:40:00,53.0,47.0,30.00,NW,308,4.0,8.0,79,-99.99,,,-99.99,599.000000,,2013-05-31 16:40:00,
2013-05-31 09:42:00,52.0,47.0,30.00,WNW,303,12.0,16.0,82,-99.99,,,-99.99,488.000000,,2013-05-31 16:42:00,
2013-05-31 09:52:00,52.0,47.0,30.00,WNW,302,11.0,14.0,81,-99.99,,,-99.99,544.000000,,2013-05-31 16:52:00,
2013-05-31 10:02:00,52.0,47.0,30.00,WNW,302,11.0,14.0,81,-99.99,,,-99.99,544.000000,,2013-05-31 17:02:00,
2013-05-31 10:12:00,53.0,47.0,30.00,NW,312,7.0,11.0,80,-99.99,,,-99.99,572.000000,,2013-05-31 17:12:00,
2013-05-31 10:22:00,53.0,47.0,30.00,NW,308,4.0,8.0,79,-99.99,,,-99.99,599.000000,,2013-05-31 17:22:00,
2013-05-31 10:32:00,53.0,47.0,30.00,NW,308,4.0,8.0,79,-99.99,,,-99.99,599.000000,,2013-05-31 17:32:00,
2013-05-31 10:40:00,54.0,47.0,30.01,NNW,329,13.0,16.0,77,-99.99,,,-99.99,736.000000,,2013-05-31 17:40:00,
2013-05-31 11:01:00,55.0,47.0,30.00,NW,325,14.0,17.0,75,-99.99,,,-99.99,695.000000,,2013-05-31 18:01:00,
2013-05-31 11:11:00,54.0,47.0,30.01,NW,325,14.0,17.0,77,-99.99,,,-99.99,716.000000,,2013-05-31 18:11:00,
2013-05-31 11:22:00,54.0,47.0,30.01,NNW,329,13.0,16.0,77,-99.99,,,-99.99,736.000000,,2013-05-31 18:22:00,
2013-05-31 11:31:00,54.0,47.0,30.01,NNW,329,13.0,16.0,77,-99.99,,,-99.99,736.000000,,2013-05-31 18:31:00,
2013-05-31 11:40:00,54.0,48.0,30.02,NW,310,14.0,19.0,79,-99.99,,,-99.99,831.000000,,2013-05-31 18:40:00,
2013-05-31 12:01:00,54.0,47.0,30.01,NW,316,14.0,19.0,78,-99.99,,,-99.99,805.000000,,2013-05-31 19:01:00,
2013-05-31 12:11:00,54.0,48.0,30.02,NW,316,13.0,20.0,78,-99.99,,,-99.99,819.000000,,2013-05-31 19:11:00,
2013-05-31 12:22:00,54.0,48.0,30.02,NW,310,14.0,19.0,79,-99.99,,,-99.99,831.000000,,2013-05-31 19:22:00,
2013-05-31 12:31:00,54.0,48.0,30.02,NW,310,14.0,19.0,79,-99.99,,,-99.99,831.000000,,2013-05-31 19:31:00,
2013-05-31 12:52:00,55.0,48.0,30.03,NW,317,14.0,21.0,78,-99.99,,,-99.99,868.000000,,2013-05-31 19:52:00,
2013-05-31 13:01:00,55.0,48.0,30.03,NW,317,14.0,21.0,78,-99.99,,,-99.99,868.000000,,2013-05-31 20:01:00,
2013-05-31 13:11:00,55.0,48.0,30.02,NW,316,14.0,19.0,78,-99.99,,,-99.99,874.000000,,2013-05-31 20:11:00,
2013-05-31 13:22:00,56.0,49.0,30.02,NW,322,14.0,19.0,77,-99.99,,,-99.99,879.000000,,2013-05-31 20:22:00,
2013-05-31 13:31:00,56.0,49.0,30.02,NW,324,16.0,22.0,77,-99.99,,,-99.99,865.000000,,2013-05-31 20:31:00,
2013-05-31 13:40:00,56.0,49.0,30.01,NW,326,14.0,18.0,77,-99.99,,,-99.99,882.000000,,2013-05-31 20:40:00,
2013-05-31 13:41:00,56.0,49.0,30.02,NNW,329,16.0,22.0,76,-99.99,,,-99.99,886.000000,,2013-05-31 20:41:00,
2013-05-31 13:51:00,56.0,49.0,30.01,NNW,329,15.0,20.0,77,-99.99,,,-99.99,887.000000,,2013-05-31 20:51:00,
2013-05-31 14:01:00,56.0,49.0,30.01,NNW,329,14.0,21.0,77,-99.99,,,-99.99,886.000000,,2013-05-31 21:01:00,
2013-05-31 14:11:00,56.0,49.0,30.01,NW,324,15.0,21.0,76,-99.99,,,-99.99,884.000000,,2013-05-31 21:11:00,
2013-05-31 14:22:00,56.0,49.0,30.01,NW,326,14.0,18.0,77,-99.99,,,-99.99,882.000000,,2013-05-31 21:22:00,
2013-05-31 14:30:00,56.0,48.0,29.99,NW,323,13.0,18.0,75,-99.99,,,-99.99,847.000000,,2013-05-31 21:30:00,
2013-05-31 14:32:00,56.0,49.0,30.01,NW,326,14.0,18.0,77,-99.99,,,-99.99,882.000000,,2013-05-31 21:32:00,
2013-05-31 14:53:00,56.0,49.0,30.00,NW,326,13.0,19.0,76,-99.99,,,-99.99,865.000000,,2013-05-31 21:53:00,
2013-05-31 15:02:00,56.0,49.0,30.00,NW,322,13.0,19.0,76,-99.99,,,-99.99,856.000000,,2013-05-31 22:02:00,
2013-05-31 15:12:00,56.0,48.0,29.99,NW,323,13.0,18.0,75,-99.99,,,-99.99,847.000000,,2013-05-31 22:12:00,
2013-05-31 15:22:00,56.0,48.0,29.99,NW,323,13.0,18.0,75,-99.99,,,-99.99,847.000000,,2013-05-31 22:22:00,
2013-05-31 15:52:00,56.0,49.0,29.98,NW,317,14.0,19.0,76,-99.99,,,-99.99,792.000000,,2013-05-31 22:52:00,
2013-05-31 16:02:00,57.0,49.0,29.98,NW,310,13.0,19.0,75,-99.99,,,-99.99,775.000000,,2013-05-31 23:02:00,
2013-05-31 16:12:00,56.0,49.0,29.98,NW,316,13.0,18.0,76,-99.99,,,-99.99,756.000000,,2013-05-31 23:12:00,
2013-05-31 16:21:00,56.0,49.0,29.98,NW,315,13.0,18.0,76,-99.99,,,-99.99,736.000000,,2013-05-31 23:21:00,
2013-05-31 16:32:00,56.0,48.0,29.97,NW,319,13.0,18.0,75,-99.99,,,-99.99,694.000000,,2013-05-31 23:32:00,
2013-05-31 16:42:00,56.0,48.0,29.97,NW,319,13.0,18.0,75,-99.99,,,-99.99,694.000000,,2013-05-31 23:42:00,
2013-05-31 16:52:00,56.0,49.0,29.97,NW,311,14.0,21.0,76,-99.99,,,-99.99,671.000000,,2013-05-31 23:52:00,
2013-05-31 17:01:00,56.0,49.0,29.97,NW,316,14.0,18.0,76,-99.99,,,-99.99,648.000000,,2013-06-01 00:01:00,
2013-05-31 17:11:00,56.0,49.0,29.97,NW,317,13.0,17.0,76,-99.99,,,-99.99,618.000000,,2013-06-01 00:11:00,
2013-05-31 17:22:00,56.0,49.0,29.97,NW,317,13.0,17.0,76,-99.99,,,-99.99,618.000000,,2013-06-01 00:22:00,
2013-05-31 17:31:00,55.0,48.0,29.96,NW,315,13.0,18.0,76,-99.99,,,-99.99,543.000000,,2013-06-01 00:31:00,
2013-05-31 17:42:00,55.0,48.0,29.96,NW,315,13.0,18.0,76,-99.99,,,-99.99,543.000000,,2013-06-01 00:42:00,
2013-05-31 17:52:00,56.0,48.0,29.96,NW,318,14.0,18.0,75,-99.99,,,-99.99,488.000000,,2013-06-01 00:52:00,
2013-05-31 18:01:00,56.0,48.0,29.96,NW,318,14.0,18.0,75,-99.99,,,-99.99,488.000000,,2013-06-01 01:01:00,
2013-05-31 18:11:00,56.0,48.0,29.96,NW,318,13.0,18.0,75,-99.99,,,-99.99,459.000000,,2013-06-01 01:11:00,
2013-05-31 18:21:00,55.0,48.0,29.95,NW,316,15.0,19.0,75,-99.99,,,-99.99,430.000000,,2013-06-01 01:21:00,
2013-05-31 18:32:00,55.0,47.0,29.95,NW,317,14.0,18.0,75,-99.99,,,-99.99,371.000000,,2013-06-01 01:32:00,
2013-05-31 18:42:00,55.0,47.0,29.95,NW,317,14.0,18.0,75,-99.99,,,-99.99,371.000000,,2013-06-01 01:42:00,
2013-05-31 18:52:00,55.0,48.0,29.95,NW,317,14.0,18.0,76,-99.99,,,-99.99,310.000000,,2013-06-01 01:52:00,
2013-05-31 19:01:00,55.0,48.0,29.95,NW,317,14.0,18.0,76,-99.99,,,-99.99,310.000000,,2013-06-01 02:01:00,
2013-05-31 19:11:00,54.0,47.0,29.95,NW,323,12.0,17.0,76,-99.99,,,-99.99,282.000000,,2013-06-01 02:11:00,
2013-05-31 19:21:00,54.0,47.0,29.95,NNW,327,11.0,16.0,77,-99.99,,,-99.99,252.000000,,2013-06-01 02:21:00,
2013-05-31 19:32:00,54.0,48.0,29.95,NW,324,11.0,16.0,78,-99.99,,,-99.99,192.000000,,2013-06-01 02:32:00,
2013-05-31 19:42:00,54.0,48.0,29.95,NW,324,11.0,16.0,78,-99.99,,,-99.99,192.000000,,2013-06-01 02:42:00,
2013-05-31 19:51:00,53.0,47.0,29.94,NW,326,11.0,15.0,79,-99.99,,,-99.99,136.000000,,2013-06-01 02:51:00,
2013-05-31 20:01:00,53.0,47.0,29.94,NW,326,11.0,15.0,79,-99.99,,,-99.99,136.000000,,2013-06-01 03:01:00,
2013-05-31 20:11:00,53.0,47.0,29.94,NNW,328,12.0,16.0,80,-99.99,,,-99.99,106.000000,,2013-06-01 03:11:00,
2013-05-31 20:21:00,52.0,46.0,29.94,NNW,332,11.0,15.0,81,-99.99,,,-99.99,71.000000,,2013-06-01 03:21:00,
2013-05-31 20:33:00,52.0,47.0,29.94,NW,324,9.0,15.0,82,-99.99,,,-99.99,45.000000,,2013-06-01 03:33:00,
2013-05-31 20:43:00,52.0,47.0,29.94,NW,323,10.0,13.0,83,-99.99,,,-99.99,36.000000,,2013-06-01 03:43:00,
2013-05-31 20:53:00,51.0,47.0,29.94,NW,323,11.0,14.0,85,-99.99,,,-99.99,14.000000,,2013-06-01 03:53:00,
2013-05-31 21:02:00,51.0,47.0,29.94,NW,323,11.0,14.0,85,-99.99,,,-99.99,14.000000,,2013-06-01 04:02:00,
2013-05-31 21:12:00,51.0,47.0,29.94,NW,320,10.0,15.0,85,-99.99,,,-99.99,6.000000,,2013-06-01 04:12:00,
2013-05-31 21:23:00,50.0,46.0,29.94,NW,320,10.0,14.0,86,-99.99,,,-99.99,3.000000,,2013-06-01 04:23:00,
2013-05-31 21:33:00,50.0,46.0,29.94,NW,325,9.0,14.0,87,-99.99,,,-99.99,0.000000,,2013-06-01 04:33:00,
2013-05-31 21:42:00,50.0,46.0,29.94,NW,325,9.0,14.0,87,-99.99,,,-99.99,0.000000,,2013-06-01 04:42:00,
2013-05-31 21:53:00,50.0,46.0,29.94,NW,325,12.0,15.0,87,-99.99,,,-99.99,0.000000,,2013-06-01 04:53:00,
2013-05-31 22:02:00,50.0,46.0,29.94,NW,325,12.0,15.0,87,-99.99,,,-99.99,0.000000,,2013-06-01 05:02:00,
2013-05-31 22:12:00,50.0,46.0,29.94,NNW,331,11.0,15.0,87,-99.99,,,-99.99,0.000000,,2013-06-01 05:12:00,
2013-05-31 22:22:00,50.0,46.0,29.95,NNW,330,11.0,14.0,87,-99.99,,,-99.99,0.000000,,2013-06-01 05:22:00,
2013-05-31 22:32:00,50.0,46.0,29.95,NNW,332,10.0,15.0,87,-99.99,,,-99.99,0.000000,,2013-06-01 05:32:00,
2013-05-31 22:42:00,50.0,46.0,29.95,NNW,332,10.0,15.0,87,-99.99,,,-99.99,0.000000,,2013-06-01 05:42:00,
2013-05-31 22:52:00,50.0,47.0,29.95,NNW,329,10.0,15.0,88,-99.99,,,-99.99,0.000000,,2013-06-01 05:52:00,
2013-05-31 23:01:00,50.0,47.0,29.95,NNW,329,10.0,15.0,88,-99.99,,,-99.99,0.000000,,2013-06-01 06:01:00,
2013-05-31 23:12:00,50.0,47.0,29.95,NNW,328,9.0,13.0,88,-99.99,,,-99.99,0.000000,,2013-06-01 06:12:00,
2013-05-31 23:22:00,50.0,47.0,29.95,NNW,328,10.0,13.0,88,-99.99,,,-99.99,0.000000,,2013-06-01 06:22:00,
2013-05-31 23:32:00,49.0,46.0,29.95,NNW,334,8.0,11.0,88,-99.99,,,-99.99,0.000000,,2013-06-01 06:32:00,
2013-05-31 23:42:00,49.0,46.0,29.95,NNW,334,8.0,11.0,88,-99.99,,,-99.99,0.000000,,2013-06-01 06:42:00,
2013-05-31 23:52:00,49.0,46.0,29.94,NNW,337,10.0,13.0,89,-99.99,,,-99.99,0.000000,,2013-06-01 06:52:00,